Location: Unspecified
(0.0000°N, 0.0000°E)
Time: 17:49:36
(UTC+00:00)

N. Korean satellite - Pass Details

Date: 12 October 2017
Orbit: 459 x 517 km, 97.2° (Epoch: 21 October)

Event Time Altitude Azimuth Distance (km) Brightness Sun altitude
Rises 19:15:45 0° 200° (SSW) 2,617 10.7 -22.1°
Reaches altitude 10° 19:18:41 10° 226° (SW) 1,718 10.1 -22.9°
Maximum altitude 19:20:39 14° 258° (WSW) 1,478 10.0 -23.3°
Drops below altitude 10° 19:22:36 10° 291° (WNW) 1,698 10.1 -23.8°
Sets 19:25:29 0° 317° (NW) 2,564 10.7 -24.5°
